Hollywood, FL

8:00 AM EST on December 17, 2017 (GMT -0500)
North Perry

Weather History for KHWO - November, 2011

Change the Weather History Date:

Monday, November 21, 2011

  Actual Average (KFLL) Record (KFLL)
Temperature  
Mean Temperature 76 °F -  
Max Temperature 82 °F 79 °F 87 °F (1986)
Min Temperature 71 °F 64 °F 38 °F (1914)
Cooling Degree Days 12    
Growing Degree Days 26 (Base 50)    
Moisture  
Dew Point 71 °F    
Average Humidity 84    
Maximum Humidity 96    
Minimum Humidity 71    
Precipitation  
Precipitation 0.15 in - - ()
Sea Level Pressure  
Sea Level Pressure 30.17 in    
Wind  
Wind Speed 9 mph (East)    
Max Wind Speed 21 mph    
Max Gust Speed 25 mph    
Visibility 9 miles    
Events Rain    
Averages and records for this station are not official NWS values.
T = Trace of Precipitation, MM = Missing Value Source: NWS Daily Summary

Daily Weather History Graph

Daily Weather History Graph

Search for Another Location

Airport or City:

Trip Planner

Search our weather history database for the weather conditions in past years. The results will help you decide how hot, cold, wet, or windy it might be!

Date:

Astronomy

Nov. 21, 2011 Rise Set
Actual Time 6:43 AM EST 5:29 PM EST
Civil Twilight 6:18 AM EST 5:54 PM EST
Nautical Twilight 5:50 AM EST 6:22 PM EST
Astronomical Twilight 5:23 AM EST 6:50 PM EST
Moon 2:40 AM EST (11/21) 2:34 PM EST (11/21)
Length of Visible Light 11h 35m
Length of Day
10h 46m
Waning Crescent, 18% of the Moon is Illuminated
Nov 21
Waning Crescent
Nov 25
New
Dec 2
First Quarter
Dec 10
Full
Dec 17
Last Quarter

Hourly Weather History & Observations

Time (EST) Temp. Heat Index Dew Point Humidity Pressure Visibility Wind Dir Wind Speed Gust Speed Precip Events Conditions
12:53 AM 75.0 °F - 72.0 °F 90% 30.18 in 10.0 mi ENE 9.2 mph - N/A   Partly Cloudy
1:53 AM 75.0 °F - 71.1 °F 87% 30.17 in 10.0 mi ENE 6.9 mph - N/A   Partly Cloudy
2:53 AM 73.9 °F - 72.0 °F 93% 30.16 in 10.0 mi ENE 5.8 mph - 0.00 in   Partly Cloudy
3:53 AM 73.9 °F - 72.0 °F 93% 30.15 in 10.0 mi ENE 4.6 mph - N/A   Scattered Clouds
4:53 AM 73.0 °F - 72.0 °F 96% 30.15 in 10.0 mi East 3.5 mph - N/A   Clear
5:53 AM 71.1 °F - 70.0 °F 96% 30.17 in 8.0 mi Calm Calm - N/A   Partly Cloudy
7:53 AM 75.9 °F - 72.0 °F 87% 30.19 in 9.0 mi ESE 6.9 mph - N/A   Clear
8:53 AM 80.1 °F 84.2 °F 73.0 °F 79% 30.21 in 10.0 mi East 9.2 mph - N/A   Clear
9:53 AM 79.0 °F - 73.0 °F 82% 30.22 in 10.0 mi ESE 11.5 mph - 0.00 in   Partly Cloudy
10:53 AM 81.0 °F 85.2 °F 72.0 °F 74% 30.22 in 10.0 mi East 16.1 mph - N/A   Partly Cloudy
11:53 AM 81.0 °F 84.9 °F 71.1 °F 72% 30.20 in 10.0 mi ESE 16.1 mph 21.9 mph N/A   Partly Cloudy
12:53 PM 82.0 °F 86.7 °F 72.0 °F 71% 30.17 in 10.0 mi East 20.7 mph 25.3 mph N/A   Partly Cloudy
1:42 PM 75.2 °F - 71.6 °F 89% 30.15 in 2.5 mi East 12.7 mph - 0.03 in Rain Rain
1:47 PM 75.2 °F - 71.6 °F 89% 30.15 in 1.0 mi East 12.7 mph - 0.13 in Rain Heavy Rain
1:53 PM 75.9 °F - 73.0 °F 91% 30.14 in 3.0 mi East 6.9 mph - 0.15 in Rain Light Rain
2:23 PM 77.0 °F - 73.4 °F 89% 30.13 in 8.0 mi East 15.0 mph - 0.00 in   Clear
2:53 PM 78.1 °F - 72.0 °F 81% 30.13 in 8.0 mi East 12.7 mph - 0.00 in   Clear
3:53 PM 78.1 °F - 71.1 °F 79% 30.14 in 9.0 mi East 16.1 mph - N/A   Partly Cloudy
4:53 PM 77.0 °F - 69.1 °F 76% 30.14 in 10.0 mi East 11.5 mph - N/A   Partly Cloudy
5:53 PM 75.9 °F - 69.1 °F 79% 30.14 in 10.0 mi ESE 6.9 mph - N/A   Clear
6:53 PM 75.0 °F - 68.0 °F 79% 30.16 in 10.0 mi East 6.9 mph - N/A   Clear
7:53 PM 75.0 °F - 68.0 °F 79% 30.17 in 10.0 mi East 8.1 mph - N/A   Clear
8:53 PM 73.9 °F - 68.0 °F 82% 30.17 in 10.0 mi ESE 5.8 mph - N/A   Clear
9:53 PM 73.9 °F - 68.0 °F 82% 30.17 in 10.0 mi East 6.9 mph - N/A   Clear
10:53 PM 73.0 °F - 68.0 °F 84% 30.17 in 10.0 mi East 4.6 mph - N/A   Clear
11:53 PM 73.9 °F - 68.0 °F 82% 30.16 in 10.0 mi ESE 3.5 mph - N/A   Mostly Cloudy